When you browse on this site, cookies collect data to enhance your experience and personalize the content and advertising you see.
Visit our Privacy Policy to learn more. By continuing to use the site, you agree to this use of cookies and data.
  • In Austria
  • List of Countries
  • For 7 days
  • Water Temperature
  • Weather Map
  • News
  • Weather Widgets
  • user-avatar
    Login

    Hourly Weather Pusan

    Today, 6 April, Monday

    Time Temperature Precipitation Wind Pressure Humidity
    00:00 +9°C° 0 mm 2 mps 765 mmHg 38%
    01:00 +8°C° 0 mm 2 mps 765 mmHg 40%
    02:00 +8°C° 0 mm 2 mps 765 mmHg 41%
    03:00 +7°C° 0 mm 2 mps 765 mmHg 43%
    04:00 +7°C° 0 mm 2 mps 765 mmHg 43%
    05:00 +7°C° 0 mm 2 mps 765 mmHg 43%
    06:00 +6°C° 0 mm 2 mps 765 mmHg 43%
    07:00 +8°C° 0 mm 2 mps 765 mmHg 36%
    08:00 +10°C° 0 mm 2 mps 765 mmHg 30%
    09:00 +13°C° 0 mm 1 mps 765 mmHg 23%
    10:00 +14°C° 0 mm 2 mps 764 mmHg 20%
    11:00 +16°C° 0 mm 2 mps 764 mmHg 17%
    12:00 +17°C° 0 mm 2 mps 764 mmHg 14%
    13:00 +17°C° 0 mm 3 mps 764 mmHg 18%
    14:00 +17°C° 0 mm 4 mps 763 mmHg 23%
    15:00 +15°C° 0 mm 4 mps 762 mmHg 28%
    16:00 +15°C° 0 mm 4 mps 762 mmHg 31%
    17:00 +14°C° 0 mm 4 mps 762 mmHg 35%
    18:00 +14°C° 0 mm 4 mps 762 mmHg 39%
    19:00 +13°C° 0 mm 4 mps 762 mmHg 41%
    20:00 +13°C° 0 mm 4 mps 762 mmHg 43%
    21:00 +12°C° 0 mm 4 mps 762 mmHg 45%
    22:00 +12°C° 0 mm 3 mps 762 mmHg 46%
    23:00 +11°C° 0 mm 3 mps 762 mmHg 47%

    Tomorrow, 7 April, Tuesday

    Time Temperature Precipitation Wind Pressure Humidity
    00:00 +12°C° 0 mm 2 mps 762 mmHg 48%
    01:00 +12°C° 0 mm 2 mps 762 mmHg 49%
    02:00 +10°C° 0 mm 3 mps 761 mmHg 50%
    03:00 +10°C° 0 mm 3 mps 761 mmHg 52%
    04:00 +10°C° 0 mm 3 mps 761 mmHg 53%
    05:00 +9°C° 0 mm 3 mps 761 mmHg 54%
    06:00 +9°C° 0 mm 3 mps 761 mmHg 55%
    07:00 +10°C° 0 mm 3 mps 761 mmHg 47%
    08:00 +12°C° 0 mm 3 mps 761 mmHg 39%
    09:00 +13°C° 0 mm 3 mps 761 mmHg 32%
    10:00 +16°C° 0 mm 3 mps 761 mmHg 30%
    11:00 +18°C° 0 mm 4 mps 760 mmHg 28%
    12:00 +19°C° 0 mm 4 mps 760 mmHg 26%
    13:00 +20°C° 0 mm 5 mps 760 mmHg 25%
    14:00 +21°C° 0 mm 5 mps 759 mmHg 25%
    15:00 +21°C° 0 mm 6 mps 759 mmHg 25%
    16:00 +21°C° 0 mm 6 mps 759 mmHg 27%
    17:00 +20°C° 0 mm 6 mps 758 mmHg 29%
    18:00 +20°C° 0 mm 5 mps 758 mmHg 31%
    19:00 +19°C° 0 mm 5 mps 758 mmHg 35%
    20:00 +16°C° 0 mm 5 mps 759 mmHg 39%
    21:00 +15°C° 0 mm 6 mps 759 mmHg 44%
    22:00 +14°C° 0 mm 5 mps 759 mmHg 46%
    23:00 +13°C° 0 mm 5 mps 759 mmHg 48%

    Day after tomorrow, 8 April, Wednesday

    Time Temperature Precipitation Wind Pressure Humidity
    00:00 +13°C° 0 mm 5 mps 759 mmHg 50%
    01:00 +12°C° 0 mm 5 mps 759 mmHg 50%
    02:00 +10°C° 0 mm 5 mps 759 mmHg 50%
    03:00 +9°C° 0 mm 5 mps 760 mmHg 49%
    04:00 +8°C° 0 mm 5 mps 760 mmHg 46%
    05:00 +8°C° 0 mm 5 mps 760 mmHg 43%
    06:00 +7°C° 0 mm 4 mps 760 mmHg 41%
    07:00 +8°C° 0 mm 4 mps 761 mmHg 35%
    08:00 +9°C° 0 mm 5 mps 761 mmHg 29%
    09:00 +10°C° 0 mm 5 mps 762 mmHg 23%
    10:00 +13°C° 0 mm 5 mps 762 mmHg 20%
    11:00 +14°C° 0 mm 5 mps 762 mmHg 18%
    12:00 +16°C° 0 mm 5 mps 762 mmHg 16%
    13:00 +16°C° 0 mm 5 mps 762 mmHg 16%
    14:00 +17°C° 0 mm 6 mps 762 mmHg 16%
    15:00 +17°C° 0 mm 6 mps 762 mmHg 16%
    16:00 +16°C° 0 mm 6 mps 762 mmHg 17%
    17:00 +15°C° 0 mm 6 mps 762 mmHg 18%
    18:00 +14°C° 0 mm 5 mps 762 mmHg 19%
    19:00 +13°C° 0 mm 5 mps 763 mmHg 20%
    20:00 +12°C° 0 mm 5 mps 763 mmHg 21%
    21:00 +9°C° 0 mm 5 mps 764 mmHg 23%
    22:00 +9°C° 0 mm 5 mps 764 mmHg 25%
    23:00 +8°C° 0 mm 5 mps 764 mmHg 27%

    9 April, Thursday

    Time Temperature Precipitation Wind Pressure Humidity
    00:00 +7°C° 0 mm 4 mps 764 mmHg 28%
    01:00 +7°C° 0 mm 4 mps 764 mmHg 30%
    02:00 +7°C° 0 mm 4 mps 764 mmHg 31%
    03:00 +6°C° 0 mm 4 mps 764 mmHg 32%
    04:00 +6°C° 0 mm 4 mps 764 mmHg 33%
    05:00 +5°C° 0 mm 4 mps 764 mmHg 34%
    06:00 +5°C° 0 mm 4 mps 764 mmHg 36%
    07:00 +6°C° 0 mm 4 mps 764 mmHg 34%
    08:00 +8°C° 0 mm 4 mps 764 mmHg 31%
    09:00 +10°C° 0 mm 4 mps 765 mmHg 29%
    10:00 +12°C° 0 mm 4 mps 765 mmHg 27%
    11:00 +13°C° 0 mm 4 mps 765 mmHg 25%
    12:00 +15°C° 0 mm 4 mps 765 mmHg 23%
    13:00 +15°C° 0 mm 4 mps 764 mmHg 22%
    14:00 +16°C° 0 mm 5 mps 764 mmHg 21%
    15:00 +17°C° 0 mm 5 mps 764 mmHg 19%
    16:00 +17°C° 0 mm 5 mps 764 mmHg 22%
    17:00 +16°C° 0 mm 5 mps 764 mmHg 25%
    18:00 +16°C° 0 mm 6 mps 764 mmHg 28%
    19:00 +15°C° 0 mm 5 mps 765 mmHg 30%
    20:00 +13°C° 0 mm 5 mps 765 mmHg 32%
    21:00 +12°C° 0 mm 4 mps 766 mmHg 34%
    22:00 +11°C° 0 mm 4 mps 766 mmHg 41%
    23:00 +10°C° 0 mm 5 mps 766 mmHg 47%

    10 April, Friday

    Time Temperature Precipitation Wind Pressure Humidity
    00:00 +9°C° 0 mm 5 mps 766 mmHg 54%
    01:00 +8°C° 0 mm 4 mps 766 mmHg 57%
    02:00 +8°C° 0 mm 4 mps 766 mmHg 61%
    03:00 +8°C° 0 mm 4 mps 766 mmHg 64%
    04:00 +8°C° 0 mm 4 mps 766 mmHg 65%
    05:00 +7°C° 0 mm 4 mps 766 mmHg 67%
    06:00 +8°C° 0 mm 3 mps 767 mmHg 68%
    07:00 +9°C° 0 mm 3 mps 767 mmHg 63%
    08:00 +11°C° 0 mm 3 mps 767 mmHg 58%
    09:00 +13°C° 0 mm 2 mps 767 mmHg 54%
    10:00 +13°C° 0 mm 3 mps 767 mmHg 47%
    11:00 +16°C° 0 mm 3 mps 767 mmHg 41%
    12:00 +17°C° 0 mm 3 mps 766 mmHg 35%
    13:00 +16°C° 0 mm 3 mps 766 mmHg 40%
    14:00 +15°C° 0 mm 4 mps 766 mmHg 44%
    15:00 +14°C° 0 mm 4 mps 766 mmHg 49%
    16:00 +14°C° 0 mm 4 mps 766 mmHg 52%
    17:00 +13°C° 0 mm 3 mps 766 mmHg 54%
    18:00 +13°C° 0 mm 3 mps 766 mmHg 57%
    19:00 +12°C° 0 mm 3 mps 766 mmHg 58%
    20:00 +13°C° 0 mm 2 mps 767 mmHg 60%
    21:00 +13°C° 0 mm 2 mps 767 mmHg 61%
    22:00 +12°C° 0 mm 2 mps 767 mmHg 62%
    23:00 +12°C° 0 mm 1 mps 767 mmHg 63%

    11 April, Saturday

    Time Temperature Precipitation Wind Pressure Humidity
    00:00 +12°C° 0 mm 1 mps 767 mmHg 64%
    01:00 +11°C° 0 mm 1 mps 767 mmHg 66%
    02:00 +11°C° 0 mm 1 mps 766 mmHg 68%
    03:00 +11°C° 0 mm 1 mps 766 mmHg 70%
    04:00 +10°C° 0 mm 1 mps 766 mmHg 71%
    05:00 +10°C° 0 mm 1 mps 766 mmHg 72%
    06:00 +10°C° 0 mm 1 mps 766 mmHg 73%
    07:00 +11°C° 0 mm 1 mps 765 mmHg 68%
    08:00 +13°C° 0 mm 1 mps 765 mmHg 62%
    09:00 +14°C° 0 mm 1 mps 765 mmHg 57%
    10:00 +15°C° 0 mm 1 mps 765 mmHg 50%
    11:00 +16°C° 0 mm 2 mps 764 mmHg 43%
    12:00 +17°C° 0 mm 2 mps 764 mmHg 36%
    13:00 +17°C° 0 mm 3 mps 764 mmHg 38%
    14:00 +17°C° 0 mm 4 mps 763 mmHg 40%
    15:00 +17°C° 0 mm 4 mps 763 mmHg 41%
    16:00 +15°C° 0 mm 4 mps 762 mmHg 44%
    17:00 +15°C° 0 mm 4 mps 762 mmHg 48%
    18:00 +14°C° 0 mm 4 mps 761 mmHg 51%
    19:00 +13°C° 0 mm 4 mps 762 mmHg 54%
    20:00 +13°C° 0 mm 3 mps 762 mmHg 57%
    21:00 +12°C° 0 mm 3 mps 762 mmHg 60%
    22:00 +13°C° 0 mm 2 mps 762 mmHg 61%
    23:00 +13°C° 0 mm 2 mps 761 mmHg 62%
    Show more